Tracking 28790 objects as of 18-Apr-2024
HD Live streaming from Space Station
objects crossing your sky now

STARLINK-4501

Track STARLINK-4501 now!
10-day predictions
STARLINK-4501 is classified as:


NORAD ID: 53553
Int'l Code: 2022-101AC
Perigee: 546.3 km
Apogee: 547.5 km
Inclination: 53.2 °
Period: 95.4 minutes
Semi major axis: 6917 km
RCS: Unknown
Launch date: August 19, 2022
Source: United States (US)
Launch site: AIR FORCE EASTERN TEST RANGE (AFETR)
Your satellite tracking list
Your tracking list is empty




NASA's NSSDC Master Catalog

Two Line Element Set (TLE):
1 53553U 22101AC  24108.70883350  .00002257  00000-0  15982-3 0  9990
2 53553  53.2171 285.9265 0000879  64.7121 295.3962 15.08838518 92659
Source of the keplerian elements: AFSPC